Regional Weather Roundup
Issued by NWS Wakefield, VA

Home | Current Version | Previous Version | Graphics & Text | Print | Product List | Glossary On
Versions: 1 2 3 4 5 6 7 8 9 10 11 12 13 14 15 16 17 18 19 20 21 22 23 24 25 26 27 28 29 30 31 32 33 34 35 36 37 38 39 40 41 42 43 44 45 46 47 48 49 50
000
ASUS41 KAKQ 231215
RWRAKQ

REGIONAL WEATHER ROUNDUP
NATIONAL WEATHER SERVICE WAKEFIELD VA
800 AM EDT SAT JUL 23 2016

Note: "fair" indicates few or no clouds below 12,000 feet with no
significant weather and/or obstructions to visibility. * = Denotes
station may not report precipitation (e.g., rain,snow,etc.),
thunder or fog.

VAZ042-051-052>054-056-231300-
NORTHERN VIRGINIA

CITY           SKY/WX    TMP DP  RH WIND       PRES   REMARKS
WASH NATIONAL  FAIR      85  69  58 NW13      29.95S
DULLES         FAIR      82  68  62 NW6       29.97S
FORT BELVOIR   FAIR      77  73  86 VRB1      29.96R
QUANTICO       FAIR      79  72  79 NW5       29.96R
FREDERICKSBRG* FAIR      78  75  92 CALM      29.96R
STAFFORD*      FAIR      77  71  80 CALM      30.00S
WARRENTON      FAIR      77  71  79 CALM      29.97S
CULPEPER*      FAIR      77  74  92 CALM      29.99R
MANASSAS*      SUNNY     75  75 100 CALM      29.97R
LEESBURG*      FAIR      82  72  69 NW8       29.98S
WINCHESTER     FAIR      79  68  69 S6        30.00S
FRONT ROYAL*   FAIR      73  70  88 S3        30.00S
LURAY*         FAIR      72  72 100 CALM      30.03R
$$

VAZ048-049-060>072-079>083-231300-
CENTRAL AND SOUTH CENTRAL VIRGINIA

CITY           SKY/WX    TMP DP  RH WIND       PRES   REMARKS
RICHMOND       FAIR      79  74  84 CALM      29.96S
CHESTERFIELD*  FAIR      81  63  54 NW3       29.98S
PETERSBURG*    FAIR      78  76  92 CALM      29.98S
HANOVER        FAIR      79  72  79 CALM      29.98R
TAPPAHANNOCK*  FAIR      79  79 100 CALM      29.97R
QUINTON*       FAIR      77  75  94 CALM      29.96R
CHARLOTTSVILLE FAIR      81  70  69 CALM      29.99R
GORDONSVILLE*  FAIR      75  72  91 CALM      29.97F
ORANGE*          N/A     79  73  83 CALM      30.00S
LOUISA*        FAIR      81  77  89 CALM      29.97S
BUMPASS*       FAIR      77  75  93 CALM      29.97S
FARMVILLE*     FAIR      76  76 100 CALM      29.97S
CREWE*         FAIR      77  76  96 CALM      29.98R
FORT PICKETT*  FAIR      76  75  96 CALM      29.98S
CHASE CITY*    FAIR      75  74  94 CALM      29.99S
CLARKSVILLE*   FAIR      75  72  88 W3        29.98S
SOUTH HILL*    FAIR      76  72  86 CALM      30.04S
LAWRENCEVILLE* FAIR      76  73  91 SW3       29.98S
EMPORIA*       FAIR      73  72  94 CALM      29.99R
$$

VAZ088>098-231300-
SOUTHEAST VIRGINIA

CITY           SKY/WX    TMP DP  RH WIND       PRES   REMARKS
NORFOLK        FAIR      80  71  74 SW9       29.96S
VIRGINIA BEACH FAIR      83  71  67 SW8       29.96S
NORFOLK NAVAL  FAIR      79  72  79 SW8       29.98S
WEST POINT*    FAIR      79  75  88 W5        29.97S
SALUDA*        FAIR      79  76  91 W3        29.95S
NEWPORT NEWS   FAIR      79  74  84 W7        29.96S
LANGLEY AFB    SUNNY     79  74  83 S9        29.96R
FORT EUSTIS    FAIR      80  74  82 W5        29.95R
WILLIAMSBURG*  FAIR      79  75  89 CALM      29.97S
HR EXEC AP*    FAIR      77  72  83 SW6       29.99R
FRANKLIN*      FAIR      76  72  85 SW3       29.99R
US460-WAKEFLD  FAIR      77  72  84 SW6       29.97R HAZE
$$

VAZ020-022-025-037-045-231300-
WEST CENTRAL AND SOUTHWEST VIRGINIA

CITY           SKY/WX    TMP DP  RH WIND       PRES   REMARKS
STAUNTON*      FAIR      70  68  92 CALM      30.06S
WAYNESBORO*    FAIR      72  67  85 CALM      30.05S
HOT SPRINGS VA FAIR      70  63  78 NW9       30.18S
LYNCHBURG      FAIR      75  71  87 CALM      30.02S
DANVILLE       FAIR      74  71  91 SW6       30.00R
SOUTH BOSTON*  FAIR      76  74  95 CALM      29.99S
MARTINSVILLE   FAIR      71  68  90 CALM      30.04F
ROANOKE        FAIR      76  68  76 W3        30.06S
BLACKSBURG     FAIR      70  68  93 CALM      30.13S
DUBLIN*        FAIR      72  67  86 CALM      30.12S
MARION*        FAIR      68  65  90 CALM      30.16S
HILLSVILLE*    FAIR      69  67  92 CALM      30.12S
RICHLANDS*     FAIR      71  68  89 CALM      30.14S
WISE*          FAIR      75  63  64 CALM      30.15S
ABINGDON*      FAIR      73  67  82 SE3       30.11S
$$

MDZ021>025-VAZ099-100-231300-
SOUTHERN MARYLAND AND THE DELMARVA PENINSULA

CITY           SKY/WX    TMP DP  RH WIND       PRES   REMARKS
PATUXENT RIVER SUNNY     84  70  62 NW8       29.94R
BAY BRIDGE APT SUNNY     82  73  74 NW9       29.94R
LEONARDTOWN    SUNNY     81  70  69 W3        29.96S
DOVER          SUNNY     82  76  79 W10       29.92R
GEORGETOWN     SUNNY     81  73  76 VRB5      29.94R
EASTON         SUNNY     84  77  79 N3        29.98R
CAMBRIDGE      SUNNY     81  73  78 CALM      29.93S
SALISBURY      SUNNY     82  75  79 NW5       29.93R
OCEAN CITY     SUNNY     82  75  79 NW8       29.93R
WALLOPS ISLAND FAIR      83  77  82 W8        29.94S
ACCOMACK*      FAIR      82  75  78 CALM      29.95R
$$

NCZ012>017-030>032-231300-
NORTH CENTRAL AND EASTERN NORTH CAROLINA

CITY           SKY/WX    TMP DP  RH WIND       PRES   REMARKS
ROANOKE RAPIDS FAIR      75  72  88 SW7       29.99R
RALEIGH        MOSUNNY   77  72  84 W5        30.00R
ELIZABETH CITY SUNNY     79  72  79 SW9       29.99R
AHOSKIE*       SUNNY     76  72  88 CALM      29.99R
EDENTON*       SUNNY     80  72  76 SW7       30.00R
CURRITUCK*     SUNNY     80  73  78 SW9       29.99R
KILL DEVIL HLS SUNNY     81  73  77 SW5       29.99S
MANTEO           N/A     79  75  87 SW10      30.00S
CAPE HATTERAS  PTSUNNY   83  74  74 SW7       30.02R
TARBORO*       FAIR      77  73  86 SW3       30.00R
GOLDSBORO      SUNNY     77  77 100 SW5       29.98S
WASHINGTON     SUNNY     77  72  83 SW3       30.00S
GREENVILLE     SUNNY     79  73  83 SW6       30.01R
NEW BERN       SUNNY     79  73  82 S7        30.02S
WILMINGTON     CLOUDY    76  73  91 SW6       30.02S
$$

VAZ048-231300-
ELSEWHERE

CITY           SKY/WX    TMP DP  RH WIND       PRES   REMARKS
HARRISBURG PA  MOSUNNY   81  72  74 NW6       29.92S
BALTIMORE      MOSUNNY   83  70  64 W8        29.94S
ANNAPOLIS      SUNNY     84  72  67 NW6       29.93S
ANDREWS AFB    NOT AVBL
PHILADELPHIA   MOSUNNY   82  70  66 W7        29.91R
GREENSBORO     MOSUNNY   77  72  84 CALM      30.00F
ROCKY MOUNT    SUNNY     77  73  87 SW5       29.99S
$$

VAZ100-231300-
MARINE

STATION/POSITION TIME  TEMP    WIND        PRES    WAVE   SWELL
                       AIR SEA DIR/SP/G            HT/PER HT/PER
                 (UTC) (F)     (DEG/KT/KT) (MB)    (FT/S) (FT/S)
BRANDYWINE LGT   1106   80     310/ 11/ 13   N/A
CAPE MAY NJ      1100   81 75  310/  5/  8 1012.4R
LEWES DE         1100   79 72  290/  9/ 10 1012.7R
OCEAN-CITY-INLET 1100   79 77  300/  7/  9 1013.3R
WACHAPREAGUE VA  1100   80 84  260/  2/  4 1013.8R
THOMAS POINT MD  1200   82 81  310/ 11/ 12 1015.0R
GOOSES REEF MD   1100   83 82  330/  8/ 12 1014.5R   1/ 2
COVE POINT MD    1100   82     330/  9/ 11 1014.0R
SOLOMONS ISLAND  1100   82 83  250/  6/  7   N/A
BISHOPS HEAD MD  1100   83 83  280/  9/ 10 1013.8R
PINEY POINT MD   1100          290/  5/  6   N/A
POTOMAC MD       1100   80 83  260/ 10/ 10 1012.7R   1
CAMBRIDGE MD     1100   82 85  290/  5/  8 1012.6R
LEWISETTA VA     1100   79 83  260/  7/  8 1013.5R
RAPPAHANNOCK LGT 1100          240/  9/ 10 1014.7R
STINGRAY PT      1100   80 84  220/  8/ 10 1014.4R   1
YORK RVR RNG VA  1100   79     250/  9/ 11 1013.6S
YORKTOWN VA      1100   77 83  230/  8/ 11 1013.7S
JAMESTOWN VA     1100   77 86  230/  4/  6   N/A     0
DOMINION TERM VA 1100   78     260/  8/ 10 1014.6R
KIPTOPEKE VA     1100      81  260/ 10/ 11   N/A
CHES BAY BRIDGE  1100   78 81  210/ 12/ 13 1014.3R
CAPE HENRY VA    1100   77     230/ 10/ 14   N/A
WILLOUBY STN VA  1100   78     220/  9/ 10   N/A
CAPE HENRY BUOY  1112      77                N/A     3/ 8
1ST LANDING BUOY 1100   79 79  230/ 12/ 14 1014.4R
CAPE CHARLES BUO 1126      65                N/A     2/ 8
OFFSHORE WE BUOY 1151      80                N/A     3/ 8
64NM E OF VA BCH 1150   80 80  230/ 16/ 19 1014.6S   4/ 4   2/ 8
DUCK PIER NC     1100   79 62  240/ 13/ 17 1014.6S
44100 DUCK FRF   1105      79                N/A     2/ 9
44056 DUCK FRF   1111      68                N/A     2/ 8
OREGON INLET NC  1100   81 84  220/ 14/ 17 1015.4S
HATTERAS NC      1100   81 83  230/  6/  9 1015.8R
DIAMOND SHLS NC  1150   83 86  240/ 12/ 12 1016.2F   2/ 9   2/ 9
CAPE LOOKOUT NC  1200   84     220/  6/  8 1016.1R
$$



USA.gov is the U.S. government's official web portal to all federal, state and local government web resources and services.